Weather History for Leonardtown, MD

Change the Weather History Date:

Wednesday, March 6, 2013

  Actual Average (KNHK) Record (KNHK)
Temperature  
Mean Temperature 36 °F -  
Max Temperature 41 °F 49 °F 71 °F (2004)
Min Temperature 32 °F 33 °F 21 °F (1978)
Degree Days  
Heating Degree Days 28    
Moisture  
Dew Point 34 °F    
Average Humidity 90    
Maximum Humidity 100    
Minimum Humidity 70    
Precipitation  
Precipitation 0.00 in - - ()
Sea Level Pressure  
Sea Level Pressure 29.66 in    
Wind  
Wind Speed 10 mph (NNE)    
Max Wind Speed 20 mph    
Max Gust Speed 38 mph    
Visibility 5 miles    
Events      
Averages and records for this station are not official NWS values.
T = Trace of Precipitation, MM = Missing Value Source: NWS Daily Summary

Daily Weather History Graph

Daily Weather History Graph

Search for Another Location

Airport:

Trip Planner

Search our weather history database for the weather conditions in past years. The results will help you decide how hot, cold, wet, or windy it might be!

Date:

Astronomy

Mar. 06, 2013 Rise Set
Actual Time 6:30 AM EST 6:04 PM EST
Civil Twilight 6:04 AM EST 6:31 PM EST
Nautical Twilight 5:33 AM EST 7:01 PM EST
Astronomical Twilight 5:02 AM EST 7:32 PM EST
Moon 2:34 AM EST (3/6) 12:47 PM EST (3/6)
Length of Visible Light 12h 26m
Length of Day
11h 34m
Waning Crescent, 30% of the Moon is Illuminated
Mar 6
Waning Crescent
Mar 11
New
Mar 19
First Quarter
Mar 27
Full
Apr 3
Last Quarter

Hourly Weather History & Observations

Time (EST) Temp. Windchill Dew Point Humidity Pressure Visibility Wind Dir Wind Speed Gust Speed Precip Events Conditions
12:04 AM 33.8 °F 28.6 °F 32.0 °F 93% 29.81 in 3.0 mi ENE 5.8 mph - N/A   Overcast
12:24 AM 32.0 °F 27.5 °F 32.0 °F 100% 29.80 in 3.0 mi NE 4.6 mph - N/A   Overcast
12:44 AM 32.0 °F 26.4 °F 32.0 °F 100% 29.79 in 1.8 mi ENE 5.8 mph - N/A   Overcast
1:04 AM 32.0 °F 27.5 °F 32.0 °F 100% 29.76 in 1.5 mi ENE 4.6 mph - N/A   Overcast
1:25 AM 32.0 °F 24.2 °F 32.0 °F 100% 29.74 in 1.5 mi ENE 9.2 mph - N/A   Overcast
2:05 AM 32.0 °F 24.8 °F 32.0 °F 100% 29.70 in 1.5 mi NE 8.1 mph - N/A   Overcast
2:25 AM 32.0 °F 24.2 °F 32.0 °F 100% 29.69 in 3.0 mi ENE 9.2 mph - N/A   Overcast
2:45 AM 33.8 °F 27.0 °F 32.0 °F 93% 29.66 in 3.0 mi NE 8.1 mph 18.4 mph N/A   Overcast
3:05 AM 33.8 °F 26.4 °F 32.0 °F 93% 29.65 in 5.0 mi ENE 9.2 mph 18.4 mph N/A   Overcast
3:25 AM 33.8 °F 25.8 °F 32.0 °F 93% 29.64 in 3.0 mi ENE 10.4 mph 19.6 mph N/A   Overcast
3:45 AM 35.6 °F 29.2 °F 33.8 °F 93% 29.64 in 3.0 mi East 8.1 mph - N/A   Overcast
4:05 AM 35.6 °F 26.6 °F 33.8 °F 93% 29.62 in 4.0 mi East 13.8 mph 19.6 mph N/A   Overcast
4:25 AM 35.6 °F 27.1 °F 33.8 °F 93% 29.60 in 10.0 mi ENE 12.7 mph 21.9 mph N/A   Overcast
4:45 AM 35.6 °F 27.5 °F 33.8 °F 93% 29.60 in 5.0 mi ENE 11.5 mph 20.7 mph N/A   Overcast
5:05 AM 37.4 °F 29.3 °F 33.8 °F 87% 29.58 in 10.0 mi ENE 12.7 mph 20.7 mph N/A   Overcast
5:25 AM 37.4 °F 29.8 °F 33.8 °F 87% 29.58 in 10.0 mi ENE 11.5 mph 25.3 mph N/A   Overcast
5:45 AM 37.4 °F 28.5 °F 33.8 °F 87% 29.57 in 10.0 mi ENE 15.0 mph 24.2 mph N/A   Overcast
6:05 AM 37.4 °F 29.3 °F 35.6 °F 93% 29.56 in 7.0 mi ENE 12.7 mph 21.9 mph N/A   Overcast
6:25 AM 37.4 °F 29.3 °F 35.6 °F 93% 29.54 in 7.0 mi ENE 12.7 mph 23.0 mph N/A   Overcast
6:45 AM 37.4 °F 28.9 °F 35.6 °F 93% 29.54 in 10.0 mi ENE 13.8 mph 23.0 mph N/A   Overcast
7:05 AM 37.4 °F 28.5 °F 35.6 °F 93% 29.53 in 10.0 mi ENE 15.0 mph 24.2 mph N/A   Overcast
7:25 AM 37.4 °F 30.3 °F 35.6 °F 93% 29.52 in 5.0 mi NE 10.4 mph 20.7 mph N/A   Overcast
7:45 AM 37.4 °F 29.3 °F 35.6 °F 93% 29.52 in 3.0 mi NE 12.7 mph 20.7 mph N/A   Overcast
8:05 AM 39.2 °F 33.6 °F 35.6 °F 87% 29.51 in 4.0 mi NE 8.1 mph 21.9 mph N/A   Overcast
8:25 AM 39.2 °F 32.5 °F 35.6 °F 87% 29.51 in 3.0 mi NE 10.4 mph 17.3 mph N/A   Overcast
8:45 AM 39.2 °F 33.6 °F 35.6 °F 87% 29.50 in 1.8 mi NNE 8.1 mph 18.4 mph N/A   Overcast
9:05 AM 39.2 °F 34.2 °F 35.6 °F 87% 29.49 in 1.5 mi NNE 6.9 mph - N/A   Overcast
9:25 AM 39.2 °F 33.0 °F 37.4 °F 93% 29.48 in 3.0 mi NNE 9.2 mph 17.3 mph N/A   Overcast
9:45 AM 41.0 °F 33.9 °F 37.4 °F 87% 29.48 in 1.8 mi NNE 12.7 mph 23.0 mph N/A   Overcast
10:06 AM 39.2 °F 33.0 °F 37.4 °F 93% 29.48 in 1.2 mi NNE 9.2 mph 23.0 mph N/A   Overcast
10:26 AM 39.2 °F 32.5 °F 37.4 °F 93% 29.47 in 1.5 mi NNE 10.4 mph 23.0 mph N/A   Overcast
10:46 AM 39.2 °F 31.2 °F 35.6 °F 87% 29.47 in 1.8 mi NNE 13.8 mph 25.3 mph N/A   Overcast
11:06 AM 37.4 °F 28.9 °F 35.6 °F 93% 29.47 in 5.0 mi North 13.8 mph 25.3 mph N/A   Overcast
11:26 AM 37.4 °F 29.3 °F 35.6 °F 93% 29.47 in 7.0 mi North 12.7 mph 31.1 mph N/A   Overcast
11:46 AM 37.4 °F 28.2 °F 33.8 °F 87% 29.47 in 4.0 mi North 16.1 mph 34.5 mph N/A   Overcast
12:06 PM 35.6 °F 27.5 °F 33.8 °F 93% 29.48 in 2.5 mi North 11.5 mph 25.3 mph N/A   Overcast
12:26 PM 35.6 °F 25.9 °F 33.8 °F 93% 29.49 in 2.0 mi North 16.1 mph 34.5 mph N/A   Overcast
12:46 PM 35.6 °F 27.1 °F 33.8 °F 93% 29.49 in 2.0 mi North 12.7 mph 35.7 mph N/A   Overcast
1:06 PM 35.6 °F 26.2 °F 33.8 °F 93% 29.49 in 1.5 mi North 15.0 mph 29.9 mph N/A   Overcast
1:26 PM 35.6 °F 28.6 °F 33.8 °F 93% 29.50 in 3.0 mi North 9.2 mph 29.9 mph N/A   Overcast
1:46 PM 35.6 °F 27.1 °F 33.8 °F 93% 29.50 in 3.0 mi NNW 12.7 mph 24.2 mph N/A   Overcast
2:06 PM 33.8 °F 23.5 °F 32.0 °F 93% 29.53 in 1.8 mi North 16.1 mph 33.4 mph N/A   Overcast
2:26 PM 33.8 °F 23.5 °F 32.0 °F 93% 29.54 in 2.0 mi North 16.1 mph 31.1 mph N/A   Overcast
2:46 PM 35.6 °F 26.2 °F 32.0 °F 87% 29.56 in 3.0 mi North 15.0 mph 28.8 mph N/A   Overcast
3:06 PM 35.6 °F 25.2 °F 33.8 °F 93% 29.58 in 2.0 mi North 18.4 mph 38.0 mph N/A   Overcast
3:26 PM 35.6 °F 25.9 °F 33.8 °F 93% 29.61 in 2.5 mi North 16.1 mph 32.2 mph N/A   Overcast
3:46 PM 35.6 °F 26.2 °F 33.8 °F 93% 29.63 in 3.0 mi North 15.0 mph 32.2 mph N/A   Overcast
4:06 PM 35.6 °F 24.8 °F 33.8 °F 93% 29.65 in 3.0 mi North 19.6 mph 31.1 mph N/A   Overcast
4:26 PM 35.6 °F 27.5 °F 33.8 °F 93% 29.67 in 4.0 mi North 11.5 mph 36.8 mph N/A   Overcast
4:46 PM 37.4 °F 27.8 °F 33.8 °F 87% 29.69 in 10.0 mi North 17.3 mph 26.5 mph N/A   Overcast
5:06 PM 35.6 °F 27.5 °F 33.8 °F 93% 29.71 in 10.0 mi North 11.5 mph 20.7 mph N/A   Overcast
5:26 PM 35.6 °F 27.1 °F 33.8 °F 93% 29.74 in 10.0 mi NNW 12.7 mph 27.6 mph N/A   Overcast
5:46 PM 37.4 °F 30.3 °F 33.8 °F 87% 29.76 in 5.0 mi NNW 10.4 mph 29.9 mph N/A   Overcast
6:06 PM 35.6 °F 27.1 °F 33.8 °F 93% 29.79 in 4.0 mi NNW 12.7 mph 26.5 mph N/A   Overcast
6:26 PM 37.4 °F 27.5 °F 33.8 °F 87% 29.80 in 10.0 mi North 18.4 mph 29.9 mph N/A   Overcast
6:47 PM 37.4 °F 29.3 °F 33.8 °F 87% 29.82 in 7.0 mi NNW 12.7 mph 28.8 mph N/A   Overcast
7:07 PM 37.4 °F 30.8 °F 33.8 °F 87% 29.83 in 7.0 mi NW 9.2 mph 23.0 mph N/A   Overcast
7:27 PM 37.4 °F 29.3 °F 33.8 °F 87% 29.85 in 7.0 mi NNW 12.7 mph 26.5 mph N/A   Overcast
8:07 PM 37.4 °F 30.3 °F 33.8 °F 87% 29.88 in 7.0 mi NNW 10.4 mph 26.5 mph N/A   Overcast
8:27 PM 37.4 °F 29.8 °F 33.8 °F 87% 29.88 in 10.0 mi NNW 11.5 mph 19.6 mph N/A   Overcast
8:47 PM 37.4 °F 30.8 °F 33.8 °F 87% 29.89 in 10.0 mi NNW 9.2 mph 19.6 mph N/A   Overcast
9:07 PM 37.4 °F 29.8 °F 33.8 °F 87% 29.90 in 10.0 mi NNW 11.5 mph 18.4 mph N/A   Overcast
9:27 PM 37.4 °F 30.3 °F 32.0 °F 81% 29.91 in 10.0 mi NNW 10.4 mph 20.7 mph N/A   Overcast
9:47 PM 37.4 °F 30.3 °F 32.0 °F 81% 29.91 in 10.0 mi NNW 10.4 mph 19.6 mph N/A   Overcast
10:07 PM 37.4 °F 31.4 °F 32.0 °F 81% 29.92 in 10.0 mi NNW 8.1 mph 17.3 mph N/A   Overcast
10:27 PM 39.2 °F 33.6 °F 32.0 °F 75% 29.93 in 10.0 mi NNW 8.1 mph - N/A   Overcast
10:47 PM 39.2 °F 33.6 °F 30.2 °F 70% 29.93 in 10.0 mi North 8.1 mph - N/A   Overcast
11:07 PM 39.2 °F 33.0 °F 30.2 °F 70% 29.93 in 10.0 mi NNW 9.2 mph - N/A   Overcast
11:27 PM 39.2 °F 33.0 °F 32.0 °F 75% 29.94 in 10.0 mi NNW 9.2 mph - N/A   Overcast
11:47 PM 37.4 °F 32.1 °F 32.0 °F 81% 29.94 in 10.0 mi NW 6.9 mph - N/A   Overcast